METEOSAT-11 (MSG-4)

Last updated on Fri Oct 11 2024 00:02:17 GMT+0000 (Coordinated Universal Time)

1 40732U 15034A 24283.61864689 .00000074 00000+0 00000+0 0 9995 2 40732 1.6610 70.9050 0001823 185.1851 355.0143 1.00280572 1058
UTC large
Height (km)
Speed (km/s)
/
Latitude / Longitude
Inclination (degrees)
Orbital Period (minutes)
Azimuth
Elevation
Range (km)
Doppler Factor

Next 0 passes for location: London (51.5072 / 0.1276)

Sorry there are no passes over London.